Location: Banksville Park
(38.5557°N, 75.1182°W)
Time: 03:56:05
(UTC+00:00)

Envisat - Pass Details

Date: 03 December 2020
Orbit: 764 x 766 km, 98.1° (Epoch: 16 January)

Event Time Altitude Azimuth Distance (km) Brightness Sun altitude
Rises 21:59:03 0° 164° (SSE) 3,217 6.4 -4.3°
Reaches altitude 10° 22:01:21 10° 163° (SSE) 2,295 5.6 -4.7°
Maximum altitude 22:06:25 84° 76° (ENE) 776 3.0 -5.6°
Drops below altitude 10° 22:11:31 10° 349° (N) 2,311 5.4 -6.5°
Sets 22:13:50 0° 349° (NNW) 3,241 6.1 -6.9°
